Simultaneous Nadir Overpasses (SNOs) Predictions

Prediction of SNOs between NPP and TERRA Satellite Orbit:

Table of predicted SNOs for the next 14.0 days since TLE Epoch: 8/15/2025
Index Date (NPP) Time (NPP) Lat,Lon (NPP) SZA (NPP ) Date (TERRA) Time (TERRA) Lat,Lon (TERRA) SZA (TERRA ) Distance(km) Time Diff (sec)
1 08/17/2025 02:28:25 -74.28, -48.22 118.79 08/17/2025 02:28:59 -74.27, -48.27 118.81 2.41 34
2 08/17/2025 03:19:10 74.22, 119.25 61.16 08/17/2025 03:18:18 74.23, 119.31 61.17 1.89 52
3 08/19/2025 12:50:06 74.28, -23.62 61.99 08/19/2025 12:50:35 74.31, -23.63 62.01 2.89 29
4 08/19/2025 13:40:49 -74.25, 143.79 118.04 08/19/2025 13:39:57 -74.22, 143.83 118.06 3.30 52
5 08/21/2025 23:11:45 -74.30, 0.92 117.19 08/21/2025 23:12:14 -74.29, 0.88 117.21 1.61 29
6 08/22/2025 00:02:30 74.25, 168.36 62.77 08/22/2025 00:01:33 74.23, 168.41 62.76 2.70 57
7 08/24/2025 09:33:26 74.32, 25.47 63.64 08/24/2025 09:33:49 74.34, 25.53 63.65 2.86 23
8 08/24/2025 10:24:09 -74.27,-167.09 116.40 08/24/2025 10:23:11 -74.27,-166.97 116.40 3.62 58
9 08/26/2025 19:55:04 -74.33, 50.02 115.51 08/26/2025 19:55:27 -74.31, 50.01 115.54 2.47 23
10 08/26/2025 20:45:48 74.25,-142.44 64.41 08/26/2025 20:44:46 74.23,-142.49 64.41 2.15 62
11 08/29/2025 06:16:44 74.32, 74.65 65.32 08/29/2025 06:17:02 74.31, 74.56 65.31 2.87 18



Historial Predications of SNOs between NPP and TERRA
